Location: Tel Aviv
(32.0670°N, 34.7670°E)
Time: 03:29:44
(UTC+03:00)

Vanguard 2 - Pass Details

Date: 23 January 2022
Orbit: 552 x 2935 km, 32.9° (Epoch: 26 May)

Event Time Altitude Azimuth Distance (km) Brightness Sun altitude
Rises 20:35:05 0° 250° (WSW) 4,218 12.0 -44.1°
Enters shadow 20:43:48 55° 239° (WSW) 2,104 9.6 -45.9°
Maximum altitude 20:46:58 81° 163° (SSE) 2,017 - -46.6°
Drops below altitude 10° 21:02:38 10° 79° (E) 5,479 - -49.9°
Sets 21:07:23 0° 79° (E) 6,670 - -50.9°
